Tracking 35275 objects as of 9-Sep-2026
HD Live streaming from Space Station
objects crossing your sky now

METEOR 2-5 DEB


METEOR 2-5 DEB is no longer on orbit


NORAD ID: 39602
Int'l Code: 1979-095CD
Launch date: October 31, 1979
Source: Commonwealth of Independent States (former USSR) (CIS)
Launch site: PLESETSK MISSILE AND SPACE COMPLEX (PKMTR)
Decay date: 2026-07-08

Note: This is SATELLITE DEBRIS
Your satellite tracking list
Your tracking list is empty




NASA's NSSDC Master Catalog

Two Line Element Set (TLE):
1 39602U 79095CD  26135.63922926  .00281734  00000-0  89444-2 0  9992
2 39602  81.1549 110.6326 0018311 121.8203 238.4820 15.31332399629777
Source of the keplerian elements: AFSPC